Terminal Aerodrome Forecast
Issued by NWS Atlanta, GA

Home | Current Version | Previous Version | Text Only | Print | Product List | Glossary On
Versions: 1 2 3 4 5 6 7 8 9 10 11 12 13 14 15 16 17 18 19 20 21 22 23 24 25 26 27 28 29 30 31 32 33 34 35 36 37 38 39 40
000
FTUS42 KFFC 061354 AAA
TAFATL
TAF AMD
KATL 061354Z 0614/0718 01006KT 5SM BR BKN012 OVC035
     FM061600 03007KT P6SM SCT035
     FM062100 31006KT P6SM FEW040
     FM070000 32005KT P6SM SKC=

USA.gov is the U.S. government's official web portal to all federal, state and local government web resources and services.